This is the latest recevied weather packets stored in our database for station/object DO0SOB-11. If no packets are shown the sender has not sent any weather packets the latest 10 day(s).
| Time | Temp. | Humidity | Pressure | Rain* | Wind** | Luminosity | Snow |
|---|---|---|---|---|---|---|---|
| 1777685374 | 13.89° C | 86% | 982.7 hPa | - | - | - | - |
| 1777684474 | 13.33° C | 94% | 982.8 hPa | - | - | - | - |
| 1777683573 | 13.89° C | 89% | 983 hPa | - | - | - | - |
| 1777682673 | 13.89° C | 86% | 983 hPa | - | - | - | - |
| 1777681773 | 15° C | 81% | 983 hPa | - | - | - | - |
| 1777680873 | 15° C | 80% | 983.1 hPa | - | - | - | - |
| 1777679973 | 15° C | 82% | 983.3 hPa | - | - | - | - |
| 1777679073 | 15° C | 84% | 983.2 hPa | - | - | - | - |
| 1777678173 | 13.89° C | 94% | 983.5 hPa | - | - | - | - |
| 1777677273 | 13.33° C | 100% | 983.6 hPa | - | - | - | - |
| 1777676373 | 13.33° C | 100% | 983.7 hPa | - | - | - | - |
| 1777675473 | 13.33° C | 100% | 983.8 hPa | - | - | - | - |
| 1777674573 | 11.67° C | 100% | 984 hPa | - | - | - | - |
| 1777673673 | 10° C | 100% | 984.2 hPa | - | - | - | - |
| 1777672773 | 11.67° C | 100% | 984.1 hPa | - | - | - | - |
| 1777671873 | 12.78° C | 100% | 984 hPa | - | - | - | - |
| 1777670972 | 14.44° C | 94% | 984 hPa | - | - | - | - |
| 1777670072 | 14.44° C | 85% | 984 hPa | - | - | - | - |
| 1777669172 | 16.11° C | 74% | 984 hPa | - | - | - | - |
| 1777668272 | 15.56° C | 78% | 984.1 hPa | - | - | - | - |
| 1777667372 | 15° C | 82% | 984.1 hPa | - | - | - | - |
| 1777666472 | 15.56° C | 79% | 984.2 hPa | - | - | - | - |
| 1777665572 | 16.11° C | 77% | 984.2 hPa | - | - | - | - |
| 1777664672 | 16.67° C | 67% | 984.3 hPa | - | - | - | - |
| 1777663772 | 17.22° C | 63% | 984.2 hPa | - | - | - | - |
* Rain since midnight (hover to see other rain measurements)
** Current wind speed in m/s (hover to see current wind gust speed)